RYR90FP EPKK-EGCC

Flight info

Callsign RYR90FP
Flight time 2h 15m
Altitude 36000
Route OMFOL T738 LASIS DCT BOLBO L986 SAS DCT RAVLO Y70 OTBED
Aircraft B738/M-SDE2E3FGHIRWXY/LB1

Departure

Time 2026-05-05 12:43
Airport Kraków John Paul II International Airport (EPKK)

Arrival

Time 2026-05-05 14:59
Airport Manchester Airport (EGCC)
Time Latitude Longitude Altitude Speed Heading
2026-05-05 12:02 50.07414 19.80452 799 ft 0 kts 107°
2026-05-05 12:36 50.07415 19.80446 799 ft 3 kts 107°
2026-05-05 12:36 50.07421 19.80415 799 ft 4 kts 109°
2026-05-05 12:36 50.07435 19.80385 799 ft 2 kts 136°
2026-05-05 12:37 50.07447 19.80362 799 ft 4 kts 90°
2026-05-05 12:37 50.07441 19.80325 799 ft 2 kts 77°
2026-05-05 12:37 50.07437 19.80297 799 ft 0 kts 77°
2026-05-05 12:40 50.07441 19.80327 799 ft 6 kts 77°
2026-05-05 12:40 50.07484 19.80385 799 ft 12 kts 15°
2026-05-05 12:40 50.07581 19.80423 799 ft 16 kts 359°
2026-05-05 12:40 50.07693 19.80386 799 ft 16 kts 348°
2026-05-05 12:41 50.07802 19.80350 799 ft 16 kts 348°
2026-05-05 12:41 50.07906 19.80316 799 ft 15 kts 348°
2026-05-05 12:41 50.08002 19.80268 799 ft 14 kts 315°
2026-05-05 12:41 50.08009 19.80179 799 ft 0 kts 258°
2026-05-05 12:42 50.08005 19.80149 800 ft 14 kts 258°
2026-05-05 12:42 50.07932 19.79627 800 ft 84 kts 258°
2026-05-05 12:43 50.07762 19.78406 801 ft 144 kts 257°
2026-05-05 12:43 50.07504 19.76665 1027 ft 173 kts 255°
2026-05-05 12:43 50.07243 19.74792 1707 ft 181 kts 256°
2026-05-05 12:43 50.06979 19.72819 2427 ft 188 kts 255°
2026-05-05 12:44 50.06703 19.70819 3143 ft 188 kts 255°
2026-05-05 12:44 50.06413 19.68764 3438 ft 205 kts 255°
2026-05-05 12:44 50.06092 19.66495 3612 ft 224 kts 254°
2026-05-05 12:44 50.05740 19.64054 3853 ft 238 kts 255°
2026-05-05 12:45 50.05384 19.61499 4144 ft 255 kts 255°
2026-05-05 12:45 50.04999 19.58753 4627 ft 263 kts 255°
2026-05-05 12:45 50.04605 19.55960 5279 ft 265 kts 255°
2026-05-05 12:45 50.04211 19.53149 5926 ft 266 kts 255°
2026-05-05 12:46 50.03808 19.50320 6538 ft 269 kts 255°
2026-05-05 12:46 50.03402 19.47462 7203 ft 272 kts 255°
2026-05-05 12:46 50.02990 19.44580 7826 ft 275 kts 255°
2026-05-05 12:46 50.02753 19.41608 8417 ft 283 kts 274°
2026-05-05 12:47 50.03267 19.38637 9098 ft 287 kts 289°
2026-05-05 12:47 50.04042 19.35758 9768 ft 290 kts 290°
2026-05-05 12:47 50.04869 19.32862 10257 ft 300 kts 291°
2026-05-05 12:47 50.05750 19.29786 10404 ft 322 kts 291°
2026-05-05 12:48 50.06681 19.26506 10564 ft 341 kts 291°
2026-05-05 12:48 50.07656 19.23044 10825 ft 355 kts 290°
2026-05-05 12:48 50.08650 19.19490 11345 ft 360 kts 290°
2026-05-05 12:48 50.09650 19.15902 12002 ft 362 kts 290°
2026-05-05 12:49 50.10647 19.12305 12686 ft 362 kts 290°
2026-05-05 12:49 50.11645 19.08686 13292 ft 365 kts 290°
2026-05-05 12:49 50.12650 19.05032 13852 ft 369 kts 290°
2026-05-05 12:49 50.13667 19.01330 14445 ft 373 kts 290°
2026-05-05 12:50 50.14690 18.97600 15060 ft 376 kts 290°
2026-05-05 12:50 50.15722 18.93836 15676 ft 379 kts 290°
2026-05-05 12:50 50.16759 18.90045 16260 ft 382 kts 290°
2026-05-05 12:50 50.17803 18.86216 16817 ft 385 kts 290°
2026-05-05 12:51 50.18856 18.82350 17373 ft 388 kts 289°
2026-05-05 12:51 50.19913 18.78458 17916 ft 391 kts 289°
2026-05-05 12:51 50.20980 18.74534 18462 ft 394 kts 290°
2026-05-05 12:51 50.22053 18.70576 18962 ft 398 kts 290°
2026-05-05 12:52 50.23133 18.66583 19474 ft 401 kts 290°
2026-05-05 12:52 50.24205 18.62555 19993 ft 402 kts 289°
2026-05-05 12:52 50.25267 18.58498 20455 ft 406 kts 289°
2026-05-05 12:52 50.26336 18.54394 20901 ft 409 kts 290°
2026-05-05 12:53 50.27413 18.50266 21388 ft 411 kts 290°
2026-05-05 12:53 50.28497 18.46112 21862 ft 413 kts 290°
2026-05-05 12:53 50.29586 18.41941 22306 ft 416 kts 290°
2026-05-05 12:53 50.30684 18.37737 22714 ft 419 kts 290°
2026-05-05 12:54 50.32900 18.29243 23496 ft 424 kts 290°
2026-05-05 12:54 50.34016 18.24956 23889 ft 426 kts 290°
2026-05-05 12:54 50.35136 18.20645 24253 ft 429 kts 290°
2026-05-05 12:55 50.35881 18.17772 24497 ft 431 kts 290°
2026-05-05 12:55 50.37008 18.13415 24856 ft 433 kts 290°
2026-05-05 12:55 50.38141 18.09030 25205 ft 435 kts 290°
2026-05-05 12:55 50.39278 18.04622 25566 ft 437 kts 290°
2026-05-05 12:56 50.40417 18.00195 25914 ft 439 kts 290°
2026-05-05 12:56 50.41929 17.94305 26341 ft 441 kts 290°
2026-05-05 12:56 50.42703 17.91284 26547 ft 443 kts 290°
2026-05-05 12:56 50.43852 17.86793 26843 ft 445 kts 290°
2026-05-05 12:57 50.45006 17.82276 27140 ft 447 kts 290°
2026-05-05 12:57 50.46203 17.77765 27440 ft 449 kts 292°
2026-05-05 12:57 50.47482 17.73294 27746 ft 450 kts 292°
2026-05-05 12:57 50.48796 17.68821 28016 ft 452 kts 293°
2026-05-05 12:58 50.50119 17.64330 28290 ft 454 kts 292°
2026-05-05 12:58 50.51437 17.59822 28562 ft 455 kts 292°
2026-05-05 12:58 50.52746 17.55302 28912 ft 454 kts 292°
2026-05-05 12:58 50.54040 17.50796 29344 ft 451 kts 292°
2026-05-05 12:59 50.55323 17.46307 29751 ft 449 kts 292°
2026-05-05 12:59 50.56597 17.41827 30074 ft 448 kts 292°
2026-05-05 12:59 50.57867 17.37351 30366 ft 448 kts 292°
2026-05-05 13:00 50.60396 17.28420 31098 ft 444 kts 291°
2026-05-05 13:00 50.61631 17.24047 31448 ft 443 kts 291°
2026-05-05 13:01 50.65364 17.10783 32340 ft 440 kts 291°
2026-05-05 13:01 50.66597 17.06385 32671 ft 438 kts 291°
2026-05-05 13:01 50.67824 17.02003 32969 ft 436 kts 291°
2026-05-05 13:01 50.69047 16.97627 33225 ft 436 kts 291°
2026-05-05 13:02 50.70266 16.93250 33474 ft 435 kts 291°
2026-05-05 13:02 50.71468 16.88870 33735 ft 434 kts 290°
2026-05-05 13:02 50.72655 16.84496 34025 ft 433 kts 290°
2026-05-05 13:02 50.73834 16.80132 34280 ft 432 kts 290°
2026-05-05 13:03 50.75010 16.75770 34511 ft 431 kts 290°
2026-05-05 13:03 50.76184 16.71415 34717 ft 431 kts 290°
2026-05-05 13:03 50.77359 16.67049 34916 ft 431 kts 290°
2026-05-05 13:03 50.78530 16.62693 35154 ft 430 kts 290°
2026-05-05 13:04 50.79695 16.58353 35396 ft 429 kts 290°
2026-05-05 13:04 50.80859 16.54012 35585 ft 429 kts 290°
2026-05-05 13:04 50.82020 16.49671 35750 ft 429 kts 290°
2026-05-05 13:04 50.83184 16.45313 35796 ft 432 kts 290°
2026-05-05 13:05 50.85514 16.36561 35799 ft 430 kts 290°
2026-05-05 13:05 50.87820 16.27873 35797 ft 426 kts 290°
2026-05-05 13:06 50.90101 16.19242 35802 ft 423 kts 290°
2026-05-05 13:06 50.92365 16.10654 35807 ft 422 kts 290°
2026-05-05 13:07 50.95328 16.02605 35822 ft 425 kts 301°
2026-05-05 13:07 50.98665 15.94847 35826 ft 426 kts 301°
2026-05-05 13:08 51.01957 15.87087 35820 ft 427 kts 300°
2026-05-05 13:08 51.05258 15.79213 35818 ft 429 kts 300°
2026-05-05 13:09 51.08559 15.71301 35824 ft 430 kts 300°
2026-05-05 13:09 51.11865 15.63358 35833 ft 431 kts 300°
2026-05-05 13:10 51.15222 15.55428 35839 ft 433 kts 301°
2026-05-05 13:10 51.18663 15.47545 35833 ft 434 kts 301°
2026-05-05 13:11 51.22099 15.39646 35834 ft 434 kts 301°
2026-05-05 13:11 51.25519 15.31724 35838 ft 433 kts 301°
2026-05-05 13:12 51.28919 15.23810 35843 ft 432 kts 301°
2026-05-05 13:12 51.32303 15.15911 35836 ft 430 kts 301°
2026-05-05 13:13 51.35675 15.08014 35829 ft 429 kts 301°
2026-05-05 13:13 51.39030 15.00138 35838 ft 427 kts 301°
2026-05-05 13:14 51.41782 14.91825 35851 ft 419 kts 287°
2026-05-05 13:14 51.43705 14.83020 35855 ft 419 kts 286°
2026-05-05 13:15 51.45604 14.74263 35854 ft 418 kts 286°
2026-05-05 13:15 51.47531 14.65459 35857 ft 419 kts 286°
2026-05-05 13:16 51.49469 14.56638 35854 ft 419 kts 286°
2026-05-05 13:16 51.51406 14.47800 35848 ft 420 kts 286°
2026-05-05 13:17 51.53340 14.38944 35857 ft 420 kts 286°
2026-05-05 13:17 51.55267 14.30074 35851 ft 421 kts 286°
2026-05-05 13:18 51.57188 14.21192 35851 ft 421 kts 286°
2026-05-05 13:18 51.59104 14.12302 35852 ft 421 kts 286°
2026-05-05 13:19 51.61013 14.03400 35851 ft 421 kts 286°
2026-05-05 13:19 51.62914 13.94495 35858 ft 421 kts 285°
2026-05-05 13:20 51.64808 13.85587 35856 ft 420 kts 285°
2026-05-05 13:20 51.66692 13.76689 35855 ft 420 kts 285°
2026-05-05 13:21 51.68568 13.67783 35859 ft 420 kts 285°
2026-05-05 13:21 51.70437 13.58875 35862 ft 419 kts 285°
2026-05-05 13:22 51.72296 13.49973 35860 ft 419 kts 285°
2026-05-05 13:22 51.74148 13.41067 35860 ft 418 kts 285°
2026-05-05 13:23 51.75992 13.32160 35865 ft 418 kts 285°
2026-05-05 13:23 51.77827 13.23261 35858 ft 418 kts 285°
2026-05-05 13:24 51.79636 13.14353 35854 ft 417 kts 283°
2026-05-05 13:24 51.81080 13.05315 35870 ft 415 kts 280°
2026-05-05 13:25 51.82400 12.96236 35855 ft 415 kts 280°
2026-05-05 13:25 51.83738 12.87167 35862 ft 415 kts 281°
2026-05-05 13:26 51.85091 12.78105 35862 ft 414 kts 281°
2026-05-05 13:26 51.86441 12.69049 35856 ft 414 kts 280°
2026-05-05 13:27 51.87783 12.59994 35861 ft 414 kts 280°
2026-05-05 13:27 51.89120 12.50933 35860 ft 414 kts 280°
2026-05-05 13:28 51.90447 12.41882 35859 ft 413 kts 280°
2026-05-05 13:28 51.91774 12.32837 35863 ft 412 kts 280°
2026-05-05 13:29 51.93092 12.23807 35853 ft 411 kts 280°
2026-05-05 13:29 51.94403 12.14790 35852 ft 411 kts 280°
2026-05-05 13:30 51.95711 12.05787 35869 ft 410 kts 280°
2026-05-05 13:30 51.97010 11.96797 35871 ft 409 kts 280°
2026-05-05 13:31 51.98298 11.87826 35880 ft 408 kts 280°
2026-05-05 13:31 51.99579 11.78857 35881 ft 408 kts 279°
2026-05-05 13:32 52.00837 11.69946 35875 ft 408 kts 279°
2026-05-05 13:32 52.02096 11.60970 35878 ft 408 kts 279°
2026-05-05 13:33 52.03350 11.51978 35884 ft 409 kts 279°
2026-05-05 13:33 52.04602 11.42965 35872 ft 410 kts 279°
2026-05-05 13:34 52.05850 11.33925 35870 ft 411 kts 279°
2026-05-05 13:34 52.07097 11.24863 35865 ft 411 kts 279°
2026-05-05 13:35 52.08343 11.15779 35855 ft 412 kts 279°
2026-05-05 13:35 52.09584 11.06668 35863 ft 413 kts 279°
2026-05-05 13:36 52.10818 10.97562 35868 ft 413 kts 279°
2026-05-05 13:36 52.12047 10.88436 35874 ft 413 kts 279°
2026-05-05 13:37 52.13270 10.79301 35883 ft 413 kts 278°
2026-05-05 13:37 52.14492 10.70165 35873 ft 413 kts 278°
2026-05-05 13:38 52.15709 10.61024 35872 ft 413 kts 278°
2026-05-05 13:38 52.16916 10.51899 35874 ft 412 kts 278°
2026-05-05 13:39 52.18115 10.42776 35891 ft 411 kts 278°
2026-05-05 13:39 52.19306 10.33655 35891 ft 411 kts 278°
2026-05-05 13:40 52.20487 10.24548 35885 ft 410 kts 278°
2026-05-05 13:40 52.21659 10.15448 35890 ft 410 kts 278°
2026-05-05 13:41 52.22824 10.06353 35891 ft 410 kts 278°
2026-05-05 13:41 52.23982 9.97251 35891 ft 410 kts 278°
2026-05-05 13:42 52.24939 9.89688 35899 ft 409 kts 277°
2026-05-05 13:42 52.26098 9.80588 35907 ft 409 kts 278°
2026-05-05 13:43 52.27265 9.71490 35909 ft 409 kts 278°
2026-05-05 13:43 52.28423 9.62389 35905 ft 410 kts 277°
2026-05-05 13:44 52.29565 9.53267 35901 ft 410 kts 277°
2026-05-05 13:44 52.30721 9.44125 35895 ft 411 kts 278°
2026-05-05 13:45 52.31868 9.34963 35897 ft 412 kts 278°
2026-05-05 13:45 52.33004 9.25778 35887 ft 413 kts 277°
2026-05-05 13:46 52.34136 9.16573 35891 ft 413 kts 277°
2026-05-05 13:46 52.35262 9.07345 35889 ft 414 kts 277°
2026-05-05 13:47 52.36383 8.98102 35889 ft 415 kts 277°
2026-05-05 13:47 52.37499 8.88832 35890 ft 415 kts 277°
2026-05-05 13:48 52.38609 8.79553 35887 ft 416 kts 277°
2026-05-05 13:48 52.39713 8.70249 35891 ft 416 kts 277°
2026-05-05 13:49 52.40811 8.60941 35898 ft 417 kts 277°
2026-05-05 13:49 52.41902 8.51616 35906 ft 417 kts 277°
2026-05-05 13:50 52.42987 8.42286 35910 ft 417 kts 277°
2026-05-05 13:50 52.44065 8.32942 35906 ft 418 kts 277°
2026-05-05 13:51 52.45136 8.23584 35907 ft 418 kts 277°
2026-05-05 13:51 52.46193 8.14279 35909 ft 418 kts 276°
2026-05-05 13:52 52.47251 8.04906 35907 ft 418 kts 276°
2026-05-05 13:52 52.48300 7.95536 35908 ft 417 kts 276°
2026-05-05 13:53 52.49340 7.86176 35912 ft 417 kts 276°
2026-05-05 13:53 52.50374 7.76803 35905 ft 417 kts 276°
2026-05-05 13:54 52.51399 7.67432 35907 ft 417 kts 276°
2026-05-05 13:54 52.52418 7.58053 35906 ft 417 kts 276°
2026-05-05 13:55 52.53430 7.48670 35907 ft 417 kts 276°
2026-05-05 13:55 52.54433 7.39287 35908 ft 417 kts 276°
2026-05-05 13:56 52.55430 7.29891 35908 ft 418 kts 276°
2026-05-05 13:56 52.56420 7.20482 35915 ft 418 kts 276°
2026-05-05 13:57 52.57403 7.11063 35919 ft 419 kts 276°
2026-05-05 13:57 52.58382 7.01620 35919 ft 419 kts 276°
2026-05-05 13:58 52.59353 6.92157 35915 ft 420 kts 276°
2026-05-05 13:58 52.60320 6.82667 35919 ft 421 kts 276°
2026-05-05 13:59 52.61761 6.68378 35919 ft 423 kts 276°
2026-05-05 14:00 52.63190 6.54035 35917 ft 424 kts 276°
2026-05-05 14:00 52.64133 6.44460 35931 ft 424 kts 275°
2026-05-05 14:01 52.65069 6.34873 35936 ft 424 kts 275°
2026-05-05 14:01 52.65998 6.25281 35935 ft 424 kts 275°
2026-05-05 14:02 52.66919 6.15680 35935 ft 424 kts 275°
2026-05-05 14:02 52.67832 6.06081 35935 ft 424 kts 275°
2026-05-05 14:03 52.68736 5.96486 35933 ft 424 kts 275°
2026-05-05 14:03 52.69633 5.86883 35929 ft 424 kts 275°
2026-05-05 14:04 52.70516 5.77347 35924 ft 424 kts 275°
2026-05-05 14:04 52.71397 5.67741 35929 ft 424 kts 275°
2026-05-05 14:05 52.72271 5.58128 35925 ft 424 kts 275°
2026-05-05 14:05 52.73136 5.48514 35926 ft 424 kts 275°
2026-05-05 14:06 52.73995 5.38889 35928 ft 424 kts 275°
2026-05-05 14:06 52.74846 5.29258 35926 ft 424 kts 275°
2026-05-05 14:07 52.75689 5.19616 35936 ft 425 kts 275°
2026-05-05 14:07 52.76527 5.09949 35939 ft 425 kts 275°
2026-05-05 14:08 52.77357 5.00274 35945 ft 426 kts 275°
2026-05-05 14:08 52.78181 4.90577 35949 ft 426 kts 275°
2026-05-05 14:09 52.78997 4.80869 35960 ft 427 kts 275°
2026-05-05 14:09 52.79807 4.71149 35964 ft 427 kts 275°
2026-05-05 14:10 52.80610 4.61407 35963 ft 428 kts 275°
2026-05-05 14:10 52.81406 4.51643 35961 ft 429 kts 275°
2026-05-05 14:11 52.82195 4.41870 35965 ft 429 kts 274°
2026-05-05 14:11 52.82977 4.32081 35963 ft 430 kts 274°
2026-05-05 14:12 52.83751 4.22289 35963 ft 430 kts 274°
2026-05-05 14:12 52.84517 4.12489 35963 ft 429 kts 274°
2026-05-05 14:13 52.85275 4.02692 35962 ft 429 kts 274°
2026-05-05 14:13 52.86024 3.92898 35964 ft 429 kts 274°
2026-05-05 14:14 52.86764 3.83111 35974 ft 429 kts 274°
2026-05-05 14:14 52.87496 3.73321 35970 ft 429 kts 274°
2026-05-05 14:15 52.88215 3.63596 35974 ft 429 kts 274°
2026-05-05 14:15 52.88931 3.53790 35978 ft 429 kts 274°
2026-05-05 14:16 52.89641 3.43964 35973 ft 430 kts 274°
2026-05-05 14:16 52.90344 3.34125 35973 ft 431 kts 274°
2026-05-05 14:17 52.91041 3.24261 35973 ft 432 kts 274°
2026-05-05 14:17 52.91698 3.14375 35968 ft 431 kts 271°
2026-05-05 14:18 52.91575 3.04477 35970 ft 430 kts 265°
2026-05-05 14:18 52.91255 2.94578 35974 ft 430 kts 265°
2026-05-05 14:19 52.90951 2.84668 35969 ft 431 kts 265°
2026-05-05 14:19 52.90670 2.74742 35974 ft 432 kts 265°
2026-05-05 14:20 52.90394 2.64806 35970 ft 432 kts 265°
2026-05-05 14:20 52.90111 2.54860 35974 ft 432 kts 265°
2026-05-05 14:21 52.89822 2.44971 35972 ft 433 kts 265°
2026-05-05 14:21 52.89636 2.38784 35974 ft 433 kts 265°
2026-05-05 14:22 52.89330 2.28826 35976 ft 433 kts 265°
2026-05-05 14:22 52.89016 2.18867 35981 ft 433 kts 265°
2026-05-05 14:23 52.88693 2.08912 35980 ft 433 kts 265°
2026-05-05 14:23 52.88362 1.98957 35982 ft 433 kts 265°
2026-05-05 14:24 52.88023 1.89001 35976 ft 433 kts 265°
2026-05-05 14:24 52.87676 1.79044 35988 ft 433 kts 265°
2026-05-05 14:25 52.87320 1.69091 35989 ft 433 kts 264°
2026-05-05 14:25 52.86956 1.59135 35990 ft 433 kts 264°
2026-05-05 14:26 52.86583 1.49179 35990 ft 434 kts 264°
2026-05-05 14:26 52.86201 1.39217 35992 ft 434 kts 264°
2026-05-05 14:27 52.85811 1.29244 35995 ft 434 kts 264°
2026-05-05 14:27 52.85412 1.19262 35992 ft 435 kts 264°
2026-05-05 14:28 52.85004 1.09278 35989 ft 435 kts 264°
2026-05-05 14:28 52.84588 0.99286 35990 ft 435 kts 264°
2026-05-05 14:29 52.84164 0.89296 35986 ft 436 kts 264°
2026-05-05 14:29 52.83730 0.79293 35979 ft 436 kts 264°
2026-05-05 14:30 52.83363 0.70977 35982 ft 436 kts 264°
2026-05-05 14:30 52.83137 0.65939 35543 ft 443 kts 264°
2026-05-05 14:30 52.82908 0.60869 35017 ft 442 kts 264°
2026-05-05 14:31 52.82678 0.55819 34597 ft 437 kts 264°
2026-05-05 14:31 52.82450 0.50829 34154 ft 434 kts 264°
2026-05-05 14:31 52.82220 0.45880 33730 ft 430 kts 264°
2026-05-05 14:31 52.81991 0.40966 33303 ft 427 kts 263°
2026-05-05 14:32 52.81761 0.36101 32883 ft 423 kts 263°
2026-05-05 14:32 52.81531 0.31268 32464 ft 420 kts 263°
2026-05-05 14:32 52.81300 0.26479 32054 ft 417 kts 263°
2026-05-05 14:32 52.81070 0.21727 31643 ft 413 kts 263°
2026-05-05 14:33 52.80839 0.17009 31237 ft 410 kts 263°
2026-05-05 14:33 52.80609 0.12331 30832 ft 407 kts 263°
2026-05-05 14:33 52.80378 0.07680 30429 ft 404 kts 263°
2026-05-05 14:33 52.80147 0.03065 30028 ft 402 kts 263°
2026-05-05 14:34 52.79916 -0.01514 29627 ft 399 kts 263°
2026-05-05 14:34 52.79684 -0.06065 29226 ft 395 kts 263°
2026-05-05 14:34 52.79453 -0.10566 28819 ft 392 kts 263°
2026-05-05 14:34 52.79223 -0.15037 28418 ft 389 kts 263°
2026-05-05 14:35 52.78992 -0.19461 28015 ft 385 kts 263°
2026-05-05 14:35 52.78762 -0.23858 27612 ft 382 kts 263°
2026-05-05 14:35 52.78532 -0.28216 27210 ft 380 kts 263°
2026-05-05 14:35 52.78302 -0.32543 26817 ft 377 kts 263°
2026-05-05 14:36 52.78073 -0.36830 26424 ft 374 kts 263°
2026-05-05 14:36 52.77843 -0.41096 26034 ft 371 kts 263°
2026-05-05 14:36 52.77614 -0.45322 25647 ft 368 kts 263°
2026-05-05 14:36 52.77384 -0.49524 25261 ft 366 kts 263°
2026-05-05 14:37 52.77155 -0.53693 24882 ft 364 kts 263°
2026-05-05 14:37 52.76926 -0.57839 24501 ft 361 kts 263°
2026-05-05 14:37 52.76697 -0.61964 24035 ft 361 kts 263°
2026-05-05 14:37 52.76465 -0.66093 23561 ft 361 kts 263°
2026-05-05 14:38 52.76233 -0.70210 23162 ft 359 kts 263°
2026-05-05 14:38 52.76001 -0.74307 22769 ft 357 kts 263°
2026-05-05 14:38 52.75769 -0.78380 22389 ft 355 kts 263°
2026-05-05 14:38 52.75537 -0.82419 22012 ft 353 kts 263°
2026-05-05 14:39 52.75305 -0.86446 21602 ft 351 kts 263°
2026-05-05 14:39 52.75073 -0.90445 21217 ft 350 kts 263°
2026-05-05 14:39 52.74842 -0.94424 20848 ft 347 kts 263°
2026-05-05 14:39 52.74609 -0.98381 20454 ft 346 kts 263°
2026-05-05 14:40 52.74377 -1.02322 20079 ft 344 kts 264°
2026-05-05 14:40 52.74518 -1.06237 19671 ft 345 kts 284°
2026-05-05 14:40 52.75477 -1.09844 19294 ft 345 kts 303°
2026-05-05 14:40 52.76972 -1.12940 18954 ft 344 kts 309°
2026-05-05 14:41 52.78548 -1.15898 18590 ft 342 kts 310°
2026-05-05 14:41 52.80132 -1.18823 18208 ft 341 kts 310°
2026-05-05 14:41 52.81706 -1.21738 17845 ft 339 kts 310°
2026-05-05 14:41 52.83263 -1.24646 17497 ft 337 kts 310°
2026-05-05 14:42 52.84804 -1.27544 17151 ft 335 kts 309°
2026-05-05 14:42 52.86333 -1.30437 16787 ft 333 kts 309°
2026-05-05 14:42 52.87848 -1.33315 16430 ft 331 kts 309°
2026-05-05 14:42 52.89354 -1.36183 16104 ft 329 kts 309°
2026-05-05 14:43 52.90845 -1.39029 15733 ft 327 kts 309°
2026-05-05 14:43 52.92335 -1.41878 15377 ft 326 kts 309°
2026-05-05 14:43 52.93812 -1.44705 15055 ft 323 kts 309°
2026-05-05 14:43 52.95276 -1.47512 14701 ft 321 kts 310°
2026-05-05 14:44 52.96735 -1.50312 14350 ft 320 kts 310°
2026-05-05 14:44 52.98182 -1.53091 14027 ft 317 kts 310°
2026-05-05 14:44 52.99618 -1.55854 13688 ft 315 kts 310°
2026-05-05 14:44 53.01051 -1.58611 13291 ft 315 kts 310°
2026-05-05 14:45 53.02479 -1.61362 12964 ft 313 kts 310°
2026-05-05 14:45 53.03894 -1.64093 12663 ft 310 kts 310°
2026-05-05 14:45 53.05297 -1.66801 12341 ft 308 kts 310°
2026-05-05 14:45 53.06691 -1.69495 11998 ft 307 kts 310°
2026-05-05 14:46 53.08078 -1.72178 11661 ft 305 kts 310°
2026-05-05 14:46 53.09456 -1.74845 11423 ft 300 kts 310°
2026-05-05 14:46 53.10795 -1.77441 11301 ft 292 kts 310°
2026-05-05 14:46 53.12103 -1.79979 11110 ft 286 kts 310°
2026-05-05 14:47 53.13382 -1.82463 10984 ft 279 kts 310°
2026-05-05 14:47 53.14628 -1.84887 10825 ft 273 kts 310°
2026-05-05 14:47 53.15865 -1.87294 10502 ft 273 kts 310°
2026-05-05 14:47 53.17099 -1.89700 10164 ft 274 kts 310°
2026-05-05 14:48 53.18337 -1.92114 9898 ft 273 kts 310°
2026-05-05 14:48 53.19564 -1.94507 9647 ft 270 kts 311°
2026-05-05 14:48 53.20785 -1.96891 9329 ft 271 kts 311°
2026-05-05 14:48 53.22007 -1.99288 9048 ft 270 kts 309°
2026-05-05 14:49 53.22823 -2.02042 8848 ft 266 kts 278°
2026-05-05 14:49 53.22648 -2.05072 8681 ft 262 kts 256°
2026-05-05 14:49 53.22167 -2.07947 8452 ft 259 kts 255°
2026-05-05 14:49 53.21681 -2.10816 8077 ft 258 kts 255°
2026-05-05 14:50 53.21184 -2.13703 7681 ft 258 kts 255°
2026-05-05 14:50 53.20688 -2.16569 7330 ft 256 kts 255°
2026-05-05 14:50 53.20194 -2.19422 6972 ft 255 kts 255°
2026-05-05 14:50 53.19701 -2.22249 6621 ft 253 kts 255°
2026-05-05 14:51 53.19208 -2.25064 6250 ft 253 kts 255°
2026-05-05 14:51 53.18708 -2.27888 5979 ft 253 kts 255°
2026-05-05 14:51 53.18209 -2.30689 5769 ft 251 kts 255°
2026-05-05 14:51 53.17718 -2.33467 5522 ft 249 kts 255°
2026-05-05 14:52 53.17230 -2.36238 5257 ft 249 kts 255°
2026-05-05 14:52 53.16733 -2.39001 5008 ft 248 kts 255°
2026-05-05 14:52 53.16231 -2.41771 4683 ft 250 kts 255°
2026-05-05 14:52 53.15729 -2.44538 4471 ft 248 kts 255°
2026-05-05 14:53 53.15235 -2.47256 4322 ft 242 kts 255°
2026-05-05 14:53 53.14802 -2.49918 4256 ft 232 kts 266°
2026-05-05 14:53 53.15127 -2.52407 4164 ft 219 kts 308°
2026-05-05 14:53 53.16325 -2.53810 4042 ft 214 kts 347°
2026-05-05 14:54 53.17788 -2.54312 3905 ft 217 kts 352°
2026-05-05 14:54 53.19303 -2.54399 3730 ft 219 kts
2026-05-05 14:54 53.20821 -2.54314 3537 ft 218 kts
2026-05-05 14:54 53.22207 -2.53409 3332 ft 217 kts 41°
2026-05-05 14:55 53.23186 -2.51581 3219 ft 206 kts 47°
2026-05-05 14:55 53.24104 -2.49783 2984 ft 201 kts 48°
2026-05-05 14:55 53.24985 -2.47994 2732 ft 198 kts 49°
2026-05-05 14:55 53.25851 -2.46209 2471 ft 196 kts 49°
2026-05-05 14:56 53.26692 -2.44466 2197 ft 189 kts 49°
2026-05-05 14:56 53.27498 -2.42802 1974 ft 180 kts 49°
2026-05-05 14:56 53.28277 -2.41194 1718 ft 175 kts 49°
2026-05-05 14:56 53.29024 -2.39652 1484 ft 167 kts 49°
2026-05-05 14:57 53.29725 -2.38205 1281 ft 156 kts 49°
2026-05-05 14:57 53.30382 -2.36850 1118 ft 146 kts 49°
2026-05-05 14:57 53.31020 -2.35537 897 ft 146 kts 49°
2026-05-05 14:57 53.31657 -2.34223 702 ft 145 kts 49°
2026-05-05 14:58 53.32296 -2.32913 525 ft 145 kts 49°
2026-05-05 14:58 53.32932 -2.31606 321 ft 144 kts 50°
2026-05-05 14:58 53.33553 -2.30329 228 ft 133 kts 51°
2026-05-05 14:58 53.34044 -2.29314 231 ft 91 kts 51°
2026-05-05 14:59 53.34349 -2.28686 223 ft 49 kts 51°
2026-05-05 14:59 53.34500 -2.28377 225 ft 27 kts 46°
2026-05-05 14:59 53.34647 -2.28206 228 ft 25 kts 24°
2026-05-05 14:59 53.34779 -2.28118 232 ft 16 kts 21°
2026-05-05 15:00 53.34881 -2.28043 228 ft 16 kts 36°
2026-05-05 15:00 53.34928 -2.27953 229 ft 15 kts 51°
2026-05-05 15:00 53.35015 -2.27773 228 ft 14 kts 51°
2026-05-05 15:00 53.35077 -2.27645 232 ft 14 kts 51°
2026-05-05 15:01 53.35137 -2.27523 235 ft 13 kts 51°
2026-05-05 15:01 53.35193 -2.27406 238 ft 13 kts 51°
2026-05-05 15:01 53.35249 -2.27290 238 ft 13 kts 51°
2026-05-05 15:01 53.35309 -2.27165 241 ft 15 kts 51°
2026-05-05 15:02 53.35384 -2.27011 246 ft 19 kts 51°
2026-05-05 15:02 53.35474 -2.26826 254 ft 21 kts 51°
2026-05-05 15:02 53.35573 -2.26641 262 ft 21 kts 28°
2026-05-05 15:02 53.35700 -2.26645 268 ft 19 kts 350°
2026-05-05 15:03 53.35836 -2.26685 266 ft 18 kts 351°
2026-05-05 15:03 53.35931 -2.26711 255 ft 13 kts 351°
2026-05-05 15:03 53.36019 -2.26741 254 ft 7 kts 15°
2026-05-05 15:03 53.36021 -2.26789 254 ft 8 kts 213°
2026-05-05 15:04 53.36019 -2.26856 254 ft 6 kts 315°
2026-05-05 15:04 53.36028 -2.26871 254 ft 0 kts 315°
2026-05-05 15:04 53.36038 -2.26887 254 ft 0 kts 314°